Dewpoint
19 17 17 17 16 15 15 15 14 15 16 16 15 15 16 18 18 17 19 19 19 18 18 18 18 18 18 18 17 17 17 16 14 13 13 12 12 13 13 12 11 12 15 15 14 11 11 12 13 15 14 12 13 14 15 15 16 17 17 14 14 15 12 11 9 6 6 10 12 13 13 13 11 12 11 11 11 11 14 12 13 12 12 12 12
20 18 17 18 16 15 15 15 15 16 15 15 15 16 17 18 18 19 18 18 18 17 17 17 17 17 17 16 15 15 16 15 13 11 10 10 10 10 9 9 9 10 11 12 11 10 10 11 12 13 13 11 12 12 12 13 13 13 14 10 11 10 13 8 8 9 4 7 8 11 12 13 10 11 11 10 10 12 11 11 12 12 12 12 12
21 19 18 17 16 15 16 15 16 15 14 15 14 16 17 17 18 17 16 17 17 16 16 16 16 16 15 15 14 13 14 13 11 10 9 8 8 7 8 8 8 8 9 10 10 10 9 10 11 12 11 10 11 10 12 11 11 10 10 11 10 11 13 11 10 9 9 9 9 9 10 11 10 10 10 10 12 11 10 11 11 12 14 13 13
22 20 19 18 16 15 15 15 14 14 13 14 14 16 17 17 18 16 16 16 15 16 16 16 15 14 14 13 12 11 11 11 9 9 8 8 7 6 6 6 7 7 8 9 10 9 9 9 10 10 10 9 9 10 11 11 11 10 10 11 10 10 11 12 12 11 11 10 10 9 11 11 10 10 10 10 10 10 10 11 12 12 13 14 13
22 21 19 17 16 15 15 14 13 13 12 13 13 15 16 16 17 15 15 15 15 15 16 15 13 13 12 12 11 10 9 8 7 7 7 8 6 5 5 5 6 6 7 8 13 9 10 9 10 10 10 9 9 9 10 9 9 11 10 11 11 11 12 12 12 12 11 11 10 10 11 10 10 10 10 9 10 10 11 11 11 12 12 13 15
22 21 20 17 16 15 15 14 13 12 12 13 13 15 16 16 16 15 15 15 15 15 14 14 12 11 10 10 10 9 8 7 6 5 5 5 5 4 4 4 5 6 7 8 11 10 10 10 10 10 10 10 9 10 10 9 9 10 10 10 12 12 12 13 13 13 12 11 11 11 11 10 10 10 10 10 10 11 11 12 12 12 13 12 12
22 21 20 17 16 15 14 14 13 12 12 12 13 15 15 15 16 15 15 14 14 14 13 13 13 10 9 9 8 7 6 5 4 4 3 3 3 3 4 4 5 6 8 9 12 11 11 11 11 10 10 10 10 10 10 9 9 9 10 10 11 12 12 12 12 13 12 11 11 11 11 11 11 10 11 11 11 11 12 12 12 11 11 12 12
22 21 19 18 17 16 15 14 13 13 12 12 14 15 15 16 16 15 16 14 14 13 13 12 12 9 8 7 6 6 4 4 3 3 3 2 3 3 4 4 5 7 9 10 12 11 11 11 11 11 11 11 11 10 10 10 9 9 11 11 11 12 12 11 11 11 11 11 11 11 11 12 12 12 12 12 13 13 13 12 10 10 11 12 13
21 20 19 18 17 16 16 15 14 14 14 14 15 15 16 16 16 16 16 15 14 13 13 12 10 8 7 6 5 5 3 3 3 2 2 2 2 3 4 5 5 7 10 12 13 13 13 13 13 13 13 16 18 17 16 15 10 10 10 12 11 12 10 8 9 9 8 9 10 11 12 12 12 12 12 13 13 13 12 11 10 11 12 12 11
21 20 19 18 17 17 16 17 15 15 15 14 15 16 16 17 17 17 17 16 14 14 12 11 10 8 7 6 5 4 3 2 11 14 13 5 3 4 5 7 8 9 11 13 14 14 14 14 15 19 20 20 20 21 21 21 20 13 11 12 12 11 7 5 6 6 7 7 8 10 11 12 12 12 13 13 13 13 11 10 11 12 12 10 9
22 20 20 19 18 17 17 17 17 16 16 16 19 18 18 19 19 19 18 17 15 15 12 10 9 8 7 6 5 4 4 4 16 20 20 17 7 6 7 9 10 11 13 13 14 14 15 15 15 18 20 21 20 22 23 23 22 22 21 20 19 12 7 6 5 7 5 6 8 10 13 12 13 13 13 13 13 11 10 11 12 12 11 9 7
22 21 20 19 18 18 18 19 19 18 19 21 21 21 21 21 21 21 20 18 17 15 12 11 9 8 7 7 6 5 4 14 19 23 23 22 18 9 12 12 12 12 13 14 14 14 15 15 15 15 16 17 17 18 21 23 24 24 24 24 23 22 20 12 8 5 6 9 11 14 14 13 13 13 14 14 12 10 11 13 13 12 10 9 8
22 21 20 19 19 19 19 20 20 22 21 21 22 22 22 21 21 20 20 19 17 15 12 12 10 9 8 7 7 7 5 16 21 24 25 25 23 15 13 13 13 13 13 14 14 14 14 14 14 15 15 19 19 15 12 12 21 22 22 21 21 21 23 23 21 14 14 15 15 15 15 14 14 14 15 14 14 12 13 14 12 11 9 8 8
22 22 21 21 20 19 20 22 22 22 22 23 22 22 21 21 21 20 20 19 18 16 15 14 14 10 9 8 8 7 6 16 22 25 25 26 26 21 12 13 13 13 14 14 14 14 14 13 13 13 14 15 16 16 13 10 10 11 12 11 10 13 19 20 21 21 20 17 17 17 16 15 14 16 16 15 14 16 14 12 11 10 10 9 8
22 21 21 21 20 21 21 22 22 22 23 23 22 22 21 21 21 21 20 19 18 17 16 16 16 15 14 12 9 8 7 17 22 25 27 26 27 27 13 12 12 13 13 13 14 14 14 14 13 13 13 13 14 15 13 11 9 8 7 7 7 7 7 8 9 12 15 15 15 14 14 15 17 15 14 15 17 15 13 12 11 10 9 7 5
21 21 21 21 21 20 21 22 23 23 22 22 22 21 21 21 21 20 19 19 18 17 17 17 17 17 16 15 13 12 8 18 22 24 26 28 27 26 17 13 12 12 12 13 14 14 14 14 14 13 13 13 17 21 19 11 8 5 5 5 6 7 8 12 15 16 15 14 15 15 17 18 20 18 19 20 18 15 12 8 7 3 2 1 1
21 21 22 21 20 20 21 22 23 23 23 22 22 22 21 21 21 20 19 19 18 17 17 17 17 17 16 15 13 13 12 17 22 24 26 28 28 25 19 16 14 13 12 13 14 14 14 14 14 14 13 13 17 21 23 21 9 7 6 5 5 6 9 11 17 20 22 22 23 23 24 25 22 21 22 22 18 15 7 5 2 -2 -1 -1 0
22 22 22 23 20 20 22 24 24 24 23 23 22 22 21 22 21 20 19 19 18 18 17 16 16 16 16 15 15 13 14 15 21 24 26 28 28 24 21 18 17 16 15 15 14 14 14 17 16 14 13 13 19 22 23 22 16 11 8 8 7 8 10 13 14 16 21 22 23 24 23 21 20 20 18 18 17 15 5 3 -0 -0 -1 0 -1
23 22 22 21 21 23 24 24 24 24 23 23 23 22 22 22 21 20 19 19 19 18 16 16 16 15 15 16 17 14 13 14 19 23 25 27 27 24 21 18 18 17 16 15 15 14 14 16 19 18 16 15 20 22 24 22 17 15 12 11 12 12 14 15 16 17 18 19 18 17 16 17 9 5 6 14 14 13 8 3 0 -1 -2 -2 -2
25 24 23 23 22 23 24 24 25 24 24 24 23 23 22 21 21 19 19 18 18 17 15 15 16 15 13 12 12 13 11 11 13 21 24 26 28 25 20 19 18 17 16 16 15 13 13 13 16 23 25 24 23 23 24 24 19 16 15 14 13 13 15 15 17 18 18 17 17 15 14 10 7 5 3 3 4 5 5 4 4 2 -1 -2 -2
26 25 23 23 23 23 24 24 24 25 25 24 24 23 22 22 21 19 18 17 16 15 14 14 13 13 12 11 10 9 10 10 10 18 21 24 27 28 21 20 19 18 16 15 14 13 13 12 12 17 23 25 26 26 25 24 23 19 16 15 15 16 17 17 18 21 18 16 13 10 9 7 6 4 3 3 4 4 5 7 6 5 3 -0 -2
25 25 24 24 24 24 24 24 25 24 25 25 24 23 22 22 20 19 17 16 15 15 14 12 11 11 11 10 9 8 10 13 8 15 19 22 25 28 25 21 20 17 16 14 13 13 13 12 11 14 19 23 24 26 26 26 25 21 19 23 23 22 19 19 19 17 13 11 8 6 3 2 2 1 0 0 1 3 3 4 6 5 4 4 2
24 24 24 24 24 24 24 24 24 24 24 24 23 22 20 20 18 17 16 15 15 14 13 12 11 11 10 10 9 8 8 8 15 12 17 20 23 25 28 27 26 19 16 15 15 13 12 10 11 15 18 20 22 24 25 26 25 24 26 25 25 25 23 19 13 12 9 7 5 5 5 2 1 1 -1 -1 0 1 2 3 3 3 4 4 4
24 24 24 24 24 24 24 24 24 23 23 23 22 21 19 18 17 16 15 14 13 13 12 12 11 10 10 11 11 10 9 8 13 17 15 19 21 23 24 27 28 23 19 17 16 15 12 10 11 17 19 20 22 23 24 24 23 25 25 25 25 25 22 13 12 9 8 6 5 5 5 3 1 -0 -1 -1 0 0 2 2 3 2 2 3 3
24 24 23 23 23 23 23 22 22 22 22 21 20 20 18 17 16 14 14 13 13 12 12 11 11 11 11 11 11 12 11 9 8 11 17 19 20 21 22 23 25 27 25 22 19 17 18 19 19 20 20 21 21 22 23 23 24 24 25 24 23 21 19 13 11 8 7 7 7 6 4 3 3 2 0 -0 0 2 0 -1 -2 -0 -0 0 1
21 21 21 21 21 20 20 20 20 21 20 20 20 20 19 16 16 15 13 13 13 12 12 11 11 10 11 11 11 12 6 6 7 5 12 15 17 20 22 22 23 23 23 24 25 25 25 24 24 23 22 21 19 18 18 18 21 23 23 23 21 20 16 13 10 9 9 8 7 6 4 3 1 0 1 1 -2 -1 -4 -6 -5 -3 -5 -4 -3
20 18 19 18 16 18 19 18 18 18 18 18 18 18 18 16 16 14 13 13 12 12 12 12 12 11 11 11 11 9 8 5 4 3 2 5 8 10 13 15 20 21 21 20 22 21 22 24 24 24 23 23 22 21 20 20 19 19 19 19 19 15 14 12 12 10 9 8 6 3 2 1 0 0 -0 -2 -3 -3 -3 -4 -6 -5 -4 -3 -3
19 17 16 15 16 16 18 14 16 17 17 17 17 17 16 16 15 15 14 13 12 12 12 12 12 12 12 12 11 8 10 8 4 3 2 3 4 5 6 8 8 9 11 13 15 18 19 21 24 23 22 21 20 20 19 18 17 17 17 17 15 11 11 14 13 9 7 6 3 -3 -5 -4 -3 -2 -3 -5 -4 -3 -4 -5 -6 -5 -5 -3 -3
14 13 12 12 13 12 13 13 14 14 12 10 11 12 13 13 14 12 10 9 12 13 12 12 12 8 9 10 8 10 10 10 8 16 7 14 6 4 4 5 6 8 12 16 15 15 16 17 19 20 20 19 18 18 18 17 17 17 16 16 13 9 8 8 8 6 2 -0 -0 -2 -2 -6 -3 -4 -4 -4 -4 -3 -2 -5 -4 -5 -5 -4 -3
13 11 11 11 9 9 9 8 5 8 9 9 9 7 11 19 16 11 9 18 19 19 20 12 6 6 8 9 9 10 11 8 17 17 19 19 20 20 17 16 16 12 14 17 16 14 14 15 16 17 18 18 17 17 17 16 15 13 11 14 10 7 6 5 5 5 2 1 1 -2 -2 -4 -3 -4 -5 -5 -5 -4 -4 1 -3 -5 -4 -4 -5
12 9 9 9 9 8 6 6 5 4 4 4 4 7 6 6 20 20 20 19 18 19 20 21 21 20 12 8 9 18 19 19 20 21 21 22 22 22 22 22 23 23 23 19 16 14 14 14 15 15 16 17 16 16 16 15 13 12 11 9 9 7 8 5 4 3 1 1 -1 -2 -2 -4 -3 -4 -5 -5 -5 -5 -5 -5 -5 -6 -7 -6 -6
12 9 7 6 8 7 6 6 5 5 2 3 4 5 5 6 8 17 18 19 20 21 21 21 21 21 22 20 16 10 17 21 22 22 22 22 22 21 21 21 22 22 22 22 18 15 14 14 14 15 15 14 14 14 14 14 14 13 11 10 8 7 6 7 7 4 2 1 -1 -2 -2 -3 -3 -4 -5 -5 -5 -7 -8 -6 -6 -6 -8 -10 -7
9 7 7 7 7 8 6 6 5 5 4 3 1 2 4 4 6 6 5 16 16 16 18 20 21 22 22 22 22 22 23 23 23 23 22 21 21 21 20 21 21 21 22 20 19 17 15 13 13 13 13 13 13 13 13 13 13 12 12 11 10 10 8 8 10 7 3 2 1 -0 -1 -2 -3 -4 -4 -5 -5 -7 -9 -7 -6 -8 -8 -9 -7
8 7 6 6 7 5 5 4 4 2 1 1 -1 0 0 -0 -1 -1 -1 3 3 10 16 16 16 19 19 20 21 21 22 22 22 23 23 23 23 22 22 20 20 21 20 18 19 18 17 15 14 13 12 12 12 12 12 12 12 11 11 11 11 11 10 8 6 5 3 3 3 -0 -2 -3 -4 -5 -6 -6 -7 -9 -10 -8 -7 -8 -9 -9 -9
5 4 4 4 5 4 3 3 1 0 -0 -1 -1 -1 -1 -2 0 -3 -3 -1 -2 -3 -4 -2 9 15 14 16 18 19 19 20 20 20 20 21 21 20 19 18 17 18 18 18 18 18 18 17 16 15 14 14 13 13 12 12 12 11 10 10 10 10 9 6 4 4 2 1 0 -1 -2 -3 -4 -4 -5 -7 -10 -10 -10 -9 -9 -8 -9 -9 -8
3 4 2 1 1 1 -1 -0 -1 -0 -2 -3 -4 -3 -3 -2 -2 -4 -2 -4 -5 -6 -6 -10 -4 9 14 13 13 13 15 16 17 17 17 17 17 15 10 10 9 9 9 10 11 11 10 10 10 10 10 10 10 11 11 11 11 11 10 9 8 7 6 5 4 2 1 0 -1 -2 -1 -4 -4 -5 -7 -8 -9 -9 -8 -8 -8 -8 -7 -8 -8
1 0 0 -3 -2 -1 -3 -2 -0 2 5 -1 -3 -4 -3 -3 -5 -7 -8 -8 -7 -7 -9 -13 -5 -3 5 2 5 10 12 12 12 13 14 14 13 7 6 5 5 5 6 6 6 6 5 5 6 6 6 6 6 7 7 7 7 7 9 8 7 6 5 4 3 2 1 -1 -2 -3 -3 -4 -5 -6 -7 -8 -8 -9 -8 -8 -8 -7 -6 -6 -5
-2 -2 -4 -5 -3 -5 -3 -3 -4 1 -4 -6 -6 -3 -6 -8 -8 -7 -8 -8 -8 -7 -10 -8 1 -7 -6 -3 3 2 4 9 10 9 9 8 3 2 2 2 2 2 2 1 1 1 1 1 1 1 1 2 2 3 3 3 4 5 5 5 4 4 6 5 4 3 -0 -1 -3 -4 -4 -5 -5 -6 -7 -8 -8 -8 -8 -8 -9 -10 -9 -7 -7
2 6 6 5 4 -3 -5 -6 -4 -5 -7 -7 -8 -7 -7 -8 -9 -10 -13 -14 -13 -11 -8 -12 -9 -7 -6 -4 -3 2 2 -2 -3 -3 -2 -2 -1 -1 -2 -2 -2 -2 -3 -3 -2 -2 -2 -2 -1 -2 -2 -2 -2 -1 -1 -0 1 2 2 2 2 1 1 2 1 1 -1 -2 -3 -4 -5 -6 -7 -7 -8 -8 -8 -9 -9 -9 -9 -10 -11 -10 -10
-1 -1 3 5 2 1 -5 -6 -7 -8 -8 -9 -10 -10 -9 -10 -11 -11 -12 -11 -10 -9 -9 -7 -7 -8 -7 -3 1 2 -0 -2 -4 -5 -6 -6 -6 -7 -6 -7 -7 -9 -8 -9 -8 -9 -9 -9 -9 -9 -8 -8 -6 -5 -3 -2 -2 -1 -0 -0 -0 -0 -1 -1 -1 -1 -2 -2 -3 -4 -6 -7 -7 -8 -10 -9 -9 -10 -10 -11 -10 -10 -10 -10 -9
-1 -1 1 3 0 -3 -5 -8 -9 -10 -10 -10 -12 -10 -10 -9 -9 -9 -10 -9 -8 -7 -7 -11 -13 -13 -6 2 8 5 -5 -7 -9 -10 -11 -11 -12 -14 -13 -14 -13 -14 -14 -13 -13 -14 -15 -15 -15 -15 -14 -13 -11 -10 -9 -7 -6 -5 -4 -3 -3 -4 -4 -4 -4 -5 -4 -5 -5 -6 -7 -8 -9 -11 -11 -11 -6 -7 -10 -9 -10 -10 -9 -9 -10
-6 -5 -7 -7 -5 -7 -8 -7 -8 -5 -8 -8 -11 -10 -9 -9 -10 -10 -8 -8 -7 -8 -11 -13 -16 -15 -5 6 5 4 -9 -14 -13 -14 -16 -16 -16 -17 -14 -16 -18 -18 -17 -18 -18 -17 -16 -16 -16 -16 -15 -15 -14 -13 -13 -12 -11 -11 -8 -7 -6 -7 -8 -8 -8 -8 -8 -9 -10 -10 -11 -11 -11 -11 -11 -5 -10 -11 -11 -12 -12 -12 -13 -12 -12
-7 -9 -9 -8 -9 -9 -9 -11 -11 -11 -11 -10 -10 -6 -7 -11 -11 -10 -11 -11 -11 -12 -14 -15 -17 -16 -12 1 -5 -3 -18 -21 -12 -16 -17 -17 -19 -17 -19 -21 -21 -21 -21 -21 -21 -21 -20 -19 -18 -18 -17 -15 -17 -16 -15 -14 -15 -14 -14 -13 -13 -13 -13 -13 -13 -11 -12 -12 -11 -10 -11 -11 -9 -12 -12 -11 -10 -11 -12 -13 -13 -13 -14 -15 -15
-8 -9 -8 -8 -9 -10 -10 -12 -11 -11 -11 -8 -8 -10 -11 -13 -15 -16 -17 -16 -15 -14 -15 -15 -15 -17 -17 -16 -14 -18 -21 -21 -22 -23 -19 -17 -20 -20 -22 -23 -23 -21 -21 -21 -22 -22 -22 -21 -20 -18 -19 -18 -18 -19 -18 -17 -17 -16 -16 -15 -14 -13 -13 -14 -12 -12 -11 -11 -12 -12 -13 -14 -12 -13 -12 -11 -14 -14 -15 -15 -15 -15 -15 -17 -17
-11 -11 -11 -11 -13 -13 -13 -12 -12 -13 -11 -13 -16 -16 -14 -17 -17 -16 -16 -18 -14 -15 -15 -15 -16 -16 -17 -21 -23 -21 -22 -24 -19 -18 -21 -23 -23 -22 -23 -24 -23 -23 -21 -20 -21 -23 -23 -22 -21 -21 -19 -19 -19 -19 -19 -18 -19 -18 -16 -15 -14 -13 -12 -12 -11 -11 -10 -12 -12 -14 -14 -13 -14 -14 -14 -13 -13 -14 -14 -16 -16 -12 -14 -15 -16
-13 -12 -12 -13 -14 -14 -16 -18 -14 -19 -19 -19 -21 -21 -20 -22 -22 -18 -15 -16 -15 -16 -17 -17 -19 -18 -19 -22 -23 -19 -22 -25 -24 -23 -21 -22 -23 -22 -24 -25 -24 -24 -23 -23 -21 -23 -22 -22 -22 -21 -19 -19 -18 -19 -19 -20 -19 -17 -17 -17 -14 -12 -11 -11 -12 -12 -12 -13 -12 -13 -13 -13 -14 -14 -13 -14 -15 -16 -16 -17 -18 -17 -17 -17 -16
-16 -14 -15 -15 -16 -15 -16 -16 -20 -20 -21 -20 -20 -19 -19 -20 -20 -16 -14 -16 -18 -16 -18 -22 -22 -23 -23 -24 -23 -23 -23 -22 -23 -23 -23 -23 -24 -24 -24 -25 -23 -23 -22 -22 -24 -22 -23 -21 -23 -22 -21 -20 -20 -20 -19 -20 -22 -19 -18 -17 -15 -14 -14 -14 -12 -12 -12 -13 -13 -15 -13 -13 -13 -14 -12 -11 -14 -14 -15 -16 -17 -18 -18 -18 -18
-18 -17 -18 -17 -18 -19 -19 -19 -17 -13 -19 -18 -18 -17 -17 -17 -18 -18 -20 -19 -20 -20 -21 -24 -26 -27 -23 -23 -22 -23 -23 -23 -23 -22 -23 -23 -25 -24 -26 -26 -24 -23 -24 -22 -24 -24 -23 -23 -23 -23 -22 -21 -20 -20 -19 -21 -20 -20 -19 -19 -18 -17 -14 -11 -14 -14 -14 -13 -14 -14 -14 -14 -14 -14 -14 -14 -15 -16 -17 -17 -18 -18 -18 -17 -15
-20 -19 -19 -19 -19 -19 -19 -19 -17 -21 -22 -20 -19 -19 -18 -19 -19 -22 -22 -22 -23 -22 -24 -23 -24 -25 -25 -24 -23 -23 -23 -21 -23 -24 -23 -24 -24 -24 -24 -25 -22 -22 -24 -22 -22 -23 -23 -23 -22 -23 -22 -23 -22 -21 -20 -20 -19 -21 -20 -19 -17 -13 -11 -11 -11 -13 -12 -12 -14 -14 -15 -15 -15 -15 -15 -15 -16 -18 -18 -20 -20 -18 -18 -17 -15
-21 -20 -20 -18 -18 -18 -20 -23 -26 -31 -22 -22 -25 -24 -21 -20 -23 -22 -23 -23 -24 -24 -25 -25 -24 -24 -25 -24 -22 -22 -23 -22 -23 -23 -23 -24 -24 -24 -23 -24 -24 -25 -24 -24 -22 -22 -23 -24 -24 -24 -23 -23 -22 -22 -22 -21 -21 -19 -21 -19 -12 -10 -10 -10 -10 -10 -10 -13 -14 -15 -15 -15 -15 -16 -16 -17 -19 -19 -20 -19 -19 -17 -17 -18 -17
-18 -19 -19 -20 -21 -20 -24 -27 -27 -28 -26 -25 -26 -25 -22 -24 -25 -24 -24 -24 -24 -23 -23 -23 -25 -25 -24 -24 -23 -22 -22 -23 -22 -22 -24 -22 -23 -24 -23 -23 -22 -23 -23 -23 -22 -22 -22 -23 -24 -22 -23 -21 -21 -21 -22 -21 -22 -20 -15 -11 -10 -10 -10 -10 -10 -9 -9 -9 -13 -14 -16 -16 -16 -18 -19 -21 -23 -23 -19 -18 -18 -19 -19 -17 -16